Lid_Strength_Index
2 0 -1 -1 -1 -1 -1 -1 -1 -1 -1 -1 -1 -1 -1 -1 -1 -1 -1 -1 -1 -1 -1 -1 -1 -1 -1 -1 -1 -1 -1 -1 -1 -1 -1 -1 -1 -1 -1 -1 -1 -1 -1
1 -0 -0 -1 -1 -1 -1 -1 -1 -1 -1 -1 -1 -1 -1 -1 -1 -1 -1 -1 -1 -1 -1 -1 -1 -1 -1 -1 -1 -0 0 0 0 -0 -1 -1 -2 -1 -2 -1 -2 -1 -1
0 -0 -0 -1 -1 -1 -1 -1 -1 -1 -1 -1 -1 -1 -1 -1 -1 -1 -1 -1 -1 -1 -1 -1 -1 -1 -1 -0 -0 -1 1 1 1 -0 0 0 -0 -1 -1 -1 -2 -1 -1
0 -0 -0 -0 -1 -1 -1 -1 -1 -2 -1 -1 -1 -1 -1 -1 -1 -1 -1 -1 -1 -1 -1 -1 -1 -1 -0 0 0 0 0 1 -0 -1 1 0 -0 -1 -1 -1 -1 -1 -1
0 -0 -0 -0 -1 -1 -1 -1 -1 -1 -1 -1 -1 -1 -1 -1 -1 -1 -1 -1 -1 -1 -1 -1 -1 -0 0 1 1 2 1 1 -1 -0 1 1 1 -1 -1 -1 -1 -1 -1
1 0 -0 -1 -1 -1 -1 -1 -1 -1 -1 -1 -1 -1 -1 -1 -1 -1 -1 -1 -1 -1 -1 -1 -0 1 2 3 4 2 1 -1 -1 2 3 1 0 -1 -1 -1 -1 -2 -1
1 1 0 -0 -1 -1 -1 -1 -1 -1 -1 -1 -1 -1 -1 -1 -1 -1 -1 -2 -2 -1 -1 -1 -1 0 1 2 2 1 1 -1 2 3 3 3 1 -1 -1 -1 -2 -1 -1
1 1 0 1 0 -0 -1 -1 -1 -1 -1 -1 -1 -1 -2 -1 -1 -2 -1 -2 -1 -1 -1 -1 -1 -0 1 3 2 1 1 1 2 3 4 3 -1 -1 -1 -1 -1 -1 -1
2 1 1 0 1 2 1 0 -0 -1 -1 -1 -1 -1 -1 -1 -1 -2 -2 -2 -1 -1 -1 -1 -1 0 1 3 3 2 2 1 5 4 3 2 -2 -1 -1 -1 -1 -1 -1
2 1 1 1 0 0 0 2 1 0 -0 -1 -0 0 1 0 -0 -1 -0 -1 -1 -2 -1 -1 -1 0 1 3 4 3 3 3 6 5 4 3 -1 -0 -0 -1 -1 -1 -1
4 2 2 2 1 -0 0 1 2 1 1 0 1 2 2 1 1 2 1 -0 -2 -2 -1 -1 -1 0 2 4 5 4 6 8 8 7 6 2 1 1 1 0 -0 -0 -1
6 4 2 2 2 1 0 1 2 0 -0 -0 -0 -0 1 1 1 2 3 1 -0 -1 -2 -2 -1 -0 4 10 11 8 11 10 9 9 7 2 2 2 1 1 1 0 -0
8 6 3 2 3 2 1 2 3 3 1 0 0 0 1 2 2 2 3 2 2 3 3 0 2 5 8 12 12 11 12 12 11 10 7 3 2 1 1 1 0 -0 -0
10 10 9 6 1 2 3 1 2 3 2 2 1 2 1 2 2 3 3 3 3 3 5 5 5 6 8 10 11 11 12 12 11 11 9 4 2 1 1 0 -0 0 0
11 11 10 9 3 1 2 3 2 1 1 1 2 2 3 3 2 3 3 3 3 5 5 6 6 7 9 11 11 12 12 12 12 11 10 5 3 1 1 -0 0 -0 -0
11 11 10 10 8 1 2 3 3 3 0 2 3 3 3 4 3 3 3 4 4 4 6 7 6 7 9 11 11 12 12 12 12 11 10 9 3 2 1 0 -0 -0 -1
12 11 11 9 8 3 2 3 3 3 3 3 3 3 3 4 3 3 3 4 3 5 5 7 8 9 10 11 12 12 12 12 12 12 10 9 7 4 2 1 1 -0 -1
13 12 11 10 9 6 3 3 3 3 4 4 4 3 3 3 3 4 4 5 4 5 6 6 9 10 10 12 13 13 13 12 12 12 11 9 8 7 5 3 2 1 0
13 13 12 11 11 8 5 4 4 5 5 4 3 3 2 2 2 3 4 5 5 6 6 7 10 10 11 12 12 13 13 13 13 12 12 11 9 8 8 6 5 5 3
13 13 13 12 12 10 8 6 7 7 8 5 5 5 3 2 3 3 4 5 5 6 7 8 9 11 11 12 12 13 14 14 13 13 13 12 11 11 10 9 9 9 6
14 13 13 13 13 12 11 10 9 10 10 10 9 9 8 6 4 4 4 5 5 5 6 8 10 10 12 12 14 14 14 14 14 13 13 13 13 12 12 11 11 10 9
15 14 14 13 13 12 12 12 11 11 11 12 11 11 11 10 9 7 6 7 7 7 8 9 10 11 11 12 13 15 16 15 15 14 14 13 13 13 13 12 12 11 11
16 16 14 14 14 13 12 12 12 12 13 13 13 13 13 12 12 12 11 8 8 8 8 9 10 11 11 12 12 12 15 17 17 15 15 14 14 14 14 13 13 12 12
17 16 15 15 15 14 13 13 14 14 15 14 14 14 13 13 14 13 13 12 11 10 9 9 10 11 11 12 12 12 13 14 15 16 16 15 15 14 14 14 14 13 13
16 17 16 15 15 15 15 15 15 16 15 15 15 16 15 15 15 15 14 14 14 13 13 11 10 11 11 12 12 13 14 14 15 15 15 17 16 15 14 14 14 14 14
16 16 16 15 15 15 15 15 15 16 16 16 16 16 16 16 15 16 15 15 14 14 14 14 13 12 11 12 12 13 13 14 15 15 16 15 16 16 16 16 15 14 14